星链-35075(STARLINK-35075)

导读

STARLINK-35075是美国于北京时间2025年9月21日发射的星链卫星,隶属于太空探索技术公司(SpaceX)的星链星座项目。星链项目旨在构建全球卫星互联网星座,为全球偏远区域、信号覆盖薄弱地区等提供高速低延迟的宽带接入服务,这颗卫星进一步扩充了星链星座的在轨规模,完善全球网络覆盖能力。

基本信息
目录编号:
65702
目录名称:
STARLINK-35075
国际标识:
2025-212AC
轨道中心:
EARTH
卫星名称:
星链-35075
卫星全名:
星链-35075(STARLINK-35075)
卫星状态:
在轨 (已飞行348 天)
发射日期:
2025-09-21 UTC
国别 :
美国 (US)
星等 :
--
轨道信息
数据来源 国际轨道数据 AOE轨道数据
星历时间 2026-09-03T17:49:25+0800
20小时前
查看轨道信息
2026-08-31T23:00:00+0800
3天前
查看轨道信息
半长轴 6848.835km 6848.925km
偏心率 0.0001017 0.0001383
轨道倾角 53.158° 53.158°
近地点辐角 77.896° 88.797°
升交点赤经 239.441° 252.407°
平近点角 282.216° 29.645°
近地点 470.001km 469.84km
远地点 471.395km 471.736km
周期 94.012分钟 94.014分钟
每日圈数 15.317141 15.31684
详细信息
固有亮度:
5
最大亮度:
2.5
卫星平台:
Starlink V1.0
覆盖范围:
全球
运营商:
太空探索技术公司
运营商所在国:
美国
制造商(研发单位):
太空探索技术公司
制造商所在国:
美国
使用方式:
暂无
卫星简介
Starlink 计划是 SpaceX 推出的全球卫星互联网项目,通过发射低轨道卫星,为全球尤其是偏远地区提供高速、低延迟的互联网服务。自 2019 年起,Starlink 已部署数千颗卫星,旨在缩小全球数字鸿沟,推动互联网普及。该项目还为军事、航空等行业提供通信支持,带来广泛经济效益。
2D轨道图
3D轨道图
轨道高度分析图
轨道倾角分析图
轨道综合分析图
查看轨道综合分析图